Weather History for Sheboygan, WI

Change the Weather History Date:

Monday, October 22, 2012

  Actual Average Record
Temperature  
Mean Temperature 54 °F -  
Max Temperature 64 °F 57 °F 76 °F (1978)
Min Temperature 44 °F 40 °F 19 °F (1997)
Degree Days  
Heating Degree Days 12    
Growing Degree Days 4 (Base 50)    
Moisture  
Dew Point 50 °F    
Average Humidity 91    
Maximum Humidity 100    
Minimum Humidity 72    
Precipitation  
Precipitation 0.20 in - - ()
Sea Level Pressure  
Sea Level Pressure 29.95 in    
Wind  
Wind Speed 3 mph (NE)    
Max Wind Speed 14 mph    
Max Gust Speed -    
Visibility 4 miles    
Events Rain    
Averages and records for this station are not official NWS values.
T = Trace of Precipitation, MM = Missing Value Source: NWS Daily Summary

Daily Weather History Graph

Daily Weather History Graph

Search for Another Location

Airport:

Trip Planner

Search our weather history database for the weather conditions in past years. The results will help you decide how hot, cold, wet, or windy it might be!

Date:

Astronomy

Oct. 22, 2012 Rise Set
Actual Time 7:15 AM CDT 5:55 PM CDT
Civil Twilight 6:45 AM CDT 6:25 PM CDT
Nautical Twilight 6:12 AM CDT 6:58 PM CDT
Astronomical Twilight 5:38 AM CDT 7:31 PM CDT
Moon 2:15 PM CDT (10/22) No Moon Set
Length of Visible Light 11h 39m
Length of Day
10h 40m
First Quarter, 56% of the Moon is Illuminated
Oct 22
First Quarter
Oct 29
Full
Nov 6
Last Quarter
Nov 13
New
Nov 20
First Quarter

Hourly Weather History & Observations

Time (CDT) Temp. Dew Point Humidity Pressure Visibility Wind Dir Wind Speed Gust Speed Precip Events Conditions
12:53 AM 46.9 °F 45.0 °F 93% 29.99 in 7.0 mi Calm Calm - N/A   Clear
1:53 AM 48.0 °F 46.0 °F 93% 29.98 in 7.0 mi Calm Calm - N/A   Clear
2:17 AM 46.4 °F 44.6 °F 93% 29.97 in 1.8 mi Calm Calm - N/A   Clear
2:27 AM 46.4 °F 44.6 °F 93% 29.97 in 0.8 mi Calm Calm - N/A   Clear
2:35 AM 46.4 °F 44.6 °F 93% 29.97 in 1.8 mi Calm Calm - N/A   Clear
2:38 AM 44.6 °F 42.8 °F 93% 29.97 in 3.0 mi Calm Calm - N/A   Clear
2:44 AM 46.4 °F 42.8 °F 87% 29.97 in 1.5 mi Calm Calm - N/A   Clear
2:53 AM 46.9 °F 44.1 °F 90% 29.98 in 1.5 mi Calm Calm - N/A   Clear
2:57 AM 46.4 °F 44.6 °F 93% 29.97 in 3.0 mi Calm Calm - N/A   Clear
3:16 AM 46.4 °F 44.6 °F 93% 29.97 in 2.5 mi Calm Calm - N/A   Clear
3:40 AM 46.4 °F 44.6 °F 93% 29.97 in 2.5 mi Calm Calm - N/A   Clear
3:53 AM 46.0 °F 45.0 °F 96% 29.98 in 2.0 mi Calm Calm - N/A   Partly Cloudy
4:00 AM 46.4 °F 44.6 °F 93% 29.97 in 1.5 mi Calm Calm - N/A   Scattered Clouds
4:37 AM 48.2 °F 46.4 °F 93% 29.96 in 3.0 mi Calm Calm - N/A   Overcast
4:53 AM 46.9 °F 45.0 °F 93% 29.97 in 4.0 mi Calm Calm - N/A   Mostly Cloudy
5:53 AM 46.9 °F 45.0 °F 93% 29.97 in 4.0 mi Calm Calm - N/A   Mostly Cloudy
6:53 AM 48.9 °F 48.0 °F 97% 29.98 in 4.0 mi Calm Calm - N/A   Overcast
7:26 AM 48.2 °F 48.2 °F 100% 29.97 in 1.8 mi Calm Calm - N/A   Mostly Cloudy
7:53 AM 50.0 °F 48.0 °F 93% 29.99 in 2.5 mi Calm Calm - N/A   Mostly Cloudy
8:53 AM 53.1 °F 50.0 °F 89% 30.01 in 2.5 mi Calm Calm - N/A   Overcast
9:27 AM 53.6 °F 51.8 °F 94% 29.98 in 3.0 mi Calm Calm - N/A   Overcast
9:53 AM 55.9 °F 54.0 °F 93% 30.00 in 4.0 mi Calm Calm - N/A   Overcast
10:53 AM 60.1 °F 54.0 °F 80% 29.99 in 6.0 mi Calm Calm - N/A   Haze
11:53 AM 62.1 °F 54.0 °F 75% 29.98 in 7.0 mi ESE 5.8 mph - N/A   Overcast
12:08 PM 62.6 °F 53.6 °F 72% 29.97 in 9.0 mi SE 6.9 mph - N/A   Overcast
12:45 PM 62.6 °F 53.6 °F 72% 29.93 in 8.0 mi East 8.1 mph - N/A   Scattered Clouds
12:53 PM 63.0 °F 55.0 °F 75% 29.93 in 10.0 mi East 8.1 mph - N/A   Partly Cloudy
1:13 PM 62.6 °F 55.4 °F 77% 29.92 in 10.0 mi ESE 6.9 mph - N/A   Mostly Cloudy
1:53 PM 60.1 °F 53.1 °F 78% 29.94 in 9.0 mi SE 4.6 mph - N/A   Overcast
2:53 PM 60.1 °F 54.0 °F 80% 29.93 in 10.0 mi Variable 3.5 mph - N/A   Overcast
3:50 PM 57.2 °F 53.6 °F 88% 29.94 in 3.0 mi East 5.8 mph - 0.03 in Rain Heavy Rain
3:53 PM 55.9 °F 53.1 °F 90% 29.95 in 3.0 mi ENE 5.8 mph - 0.03 in Rain Rain
4:15 PM 55.4 °F 53.6 °F 94% 29.94 in 3.0 mi ENE 5.8 mph - 0.01 in Rain Rain
4:20 PM 55.4 °F 53.6 °F 94% 29.93 in 2.5 mi NE 5.8 mph - 0.02 in Rain Light Rain
4:24 PM 55.4 °F 53.6 °F 94% 29.94 in 3.0 mi NNE 6.9 mph - 0.02 in Rain Light Rain
4:38 PM 53.6 °F 51.8 °F 94% 29.93 in 2.0 mi NE 10.4 mph - 0.02 in Rain Light Rain
4:45 PM 53.6 °F 51.8 °F 94% 29.93 in 1.8 mi NNE 9.2 mph - 0.02 in Rain Light Rain
4:53 PM 54.0 °F 52.0 °F 93% 29.93 in 1.2 mi NE 11.5 mph - 0.03 in Rain Rain
5:09 PM 53.6 °F 53.6 °F 100% 29.92 in 1.0 mi NE 11.5 mph - 0.06 in Rain Rain
5:40 PM 53.6 °F 53.6 °F 100% 29.90 in 1.8 mi NNE 11.5 mph - 0.11 in Rain Light Rain
5:49 PM 53.6 °F 51.8 °F 94% 29.91 in 2.5 mi NE 11.5 mph - 0.12 in Rain Light Rain
5:53 PM 54.0 °F 52.0 °F 93% 29.92 in 2.5 mi NE 13.8 mph - 0.12 in Rain Light Rain
5:55 PM 53.6 °F 51.8 °F 94% 29.91 in 3.0 mi NE 12.7 mph - 0.00 in Rain Light Rain
6:03 PM 53.6 °F 51.8 °F 94% 29.91 in 2.5 mi NNE 11.5 mph - 0.01 in Rain Light Rain
6:12 PM 53.6 °F 51.8 °F 94% 29.92 in 3.0 mi NE 10.4 mph - 0.01 in Rain Light Rain
6:53 PM 53.1 °F 52.0 °F 96% 29.94 in 3.0 mi NE 6.9 mph - 0.02 in   Overcast
7:27 PM 53.6 °F 51.8 °F 94% 29.94 in 4.0 mi NE 9.2 mph - N/A   Overcast
7:53 PM 53.1 °F 51.1 °F 93% 29.97 in 4.0 mi NNE 5.8 mph - N/A   Overcast
8:09 PM 53.6 °F 51.8 °F 94% 29.95 in 4.0 mi NE 6.9 mph - N/A   Overcast
8:53 PM 54.0 °F 51.1 °F 90% 29.95 in 5.0 mi NNE 10.4 mph - N/A   Overcast
9:44 PM 55.4 °F 51.8 °F 88% 29.94 in 6.0 mi NE 6.9 mph - N/A   Overcast
9:53 PM 55.0 °F 53.1 °F 93% 29.94 in 6.0 mi NNE 8.1 mph - N/A   Overcast
10:53 PM 55.0 °F 53.1 °F 93% 29.95 in 6.0 mi NNE 4.6 mph - N/A   Overcast
11:53 PM 55.0 °F 53.1 °F 93% 29.95 in 5.0 mi Calm Calm - N/A   Overcast